Time,TemperatureF,DewpointF,PressureIn,WindDirection,WindDirectionDegrees,WindSpeedMPH,WindSpeedGustMPH,Humidity,HourlyPrecipIn,Conditions,Clouds,dailyrainin,SoftwareType,DateUTC
2013-06-25 00:00:00,71.1,64.2,29.92,WSW,242,11.0,17.0,79,0.00,,,0.00,meteohub,2013-06-25 04:00:00,
2013-06-25 00:01:00,70.9,64.4,29.92,West,263,6.0,17.0,80,0.00,,,0.00,meteohub,2013-06-25 04:01:00,
2013-06-25 00:02:00,70.9,64.4,29.92,West,274,6.0,17.0,80,0.00,,,0.00,meteohub,2013-06-25 04:02:00,
2013-06-25 00:03:00,70.9,64.4,29.92,WNW,293,6.0,17.0,80,0.00,,,0.00,meteohub,2013-06-25 04:03:00,
2013-06-25 00:07:00,70.7,64.2,29.92,WNW,290,5.0,21.0,80,0.00,,,0.00,meteohub,2013-06-25 04:07:00,
2013-06-25 00:12:00,70.5,64.4,29.92,West,270,4.0,21.0,81,0.00,,,0.00,meteohub,2013-06-25 04:12:00,
2013-06-25 00:17:00,70.5,64.4,29.93,West,270,6.0,11.0,81,0.00,,,0.00,meteohub,2013-06-25 04:17:00,
2013-06-25 00:22:00,70.3,64.2,29.93,West,278,7.0,11.0,81,0.00,,,0.00,meteohub,2013-06-25 04:22:00,
2013-06-25 00:27:00,70.3,64.2,29.93,West,273,8.0,14.0,81,0.00,,,0.00,meteohub,2013-06-25 04:27:00,
2013-06-25 00:32:00,70.3,64.2,29.92,WSW,255,8.0,14.0,81,0.00,,,0.00,meteohub,2013-06-25 04:32:00,
2013-06-25 00:37:00,70.3,64.2,29.92,SW,225,7.0,13.0,81,0.00,,,0.00,meteohub,2013-06-25 04:37:00,
2013-06-25 00:42:00,70.2,64.4,29.91,WSW,244,5.0,13.0,82,0.00,,,0.00,meteohub,2013-06-25 04:42:00,
2013-06-25 00:47:00,70.2,64.4,29.91,West,264,4.0,13.0,82,0.00,,,0.00,meteohub,2013-06-25 04:47:00,
2013-06-25 00:52:00,70.2,64.4,29.91,SSW,210,3.0,13.0,82,0.00,,,0.00,meteohub,2013-06-25 04:52:00,
2013-06-25 00:57:00,70.2,64.4,29.90,SW,233,5.0,9.0,82,0.00,,,0.00,meteohub,2013-06-25 04:57:00,
2013-06-25 01:03:00,70.2,64.4,29.91,WSW,253,5.0,9.0,82,0.00,,,0.00,meteohub,2013-06-25 05:03:00,
2013-06-25 01:08:00,70.2,64.4,29.91,WSW,248,6.0,9.0,82,0.00,,,0.00,meteohub,2013-06-25 05:08:00,
2013-06-25 01:13:00,70.0,64.2,29.91,SW,233,4.0,11.0,82,0.00,,,0.00,meteohub,2013-06-25 05:13:00,
2013-06-25 01:18:00,70.0,64.2,29.92,West,264,7.0,11.0,82,0.00,,,0.00,meteohub,2013-06-25 05:18:00,
2013-06-25 01:24:00,70.0,64.6,29.92,WSW,240,4.0,11.0,83,0.00,,,0.00,meteohub,2013-06-25 05:24:00,
2013-06-25 01:29:00,70.0,64.6,29.91,WSW,248,6.0,11.0,83,0.00,,,0.00,meteohub,2013-06-25 05:29:00,
2013-06-25 01:34:00,70.0,64.6,29.91,SSW,210,3.0,11.0,83,0.00,,,0.00,meteohub,2013-06-25 05:34:00,
2013-06-25 01:39:00,70.0,64.6,29.91,WSW,239,4.0,11.0,83,0.00,,,0.00,meteohub,2013-06-25 05:39:00,
2013-06-25 01:44:00,70.0,64.6,29.91,WSW,253,5.0,7.0,83,0.00,,,0.00,meteohub,2013-06-25 05:44:00,
2013-06-25 01:50:00,69.8,64.8,29.91,West,267,4.0,7.0,84,0.00,,,0.00,meteohub,2013-06-25 05:50:00,
2013-06-25 01:55:00,69.8,64.4,29.91,WSW,256,4.0,6.0,83,0.00,,,0.00,meteohub,2013-06-25 05:55:00,
2013-06-25 02:00:00,69.8,64.8,29.91,WSW,245,2.0,6.0,84,0.00,,,0.00,meteohub,2013-06-25 06:00:00,
2013-06-25 02:05:00,69.6,64.6,29.91,WSW,248,5.0,6.0,84,0.00,,,0.00,meteohub,2013-06-25 06:05:00,
2013-06-25 02:10:00,69.6,64.6,29.91,West,262,7.0,7.0,84,0.00,,,0.00,meteohub,2013-06-25 06:10:00,
2013-06-25 02:16:00,69.6,64.6,29.92,West,259,2.0,9.0,84,0.00,,,0.00,meteohub,2013-06-25 06:16:00,
2013-06-25 02:21:00,69.6,64.9,29.92,WSW,242,6.0,9.0,85,0.00,,,0.00,meteohub,2013-06-25 06:21:00,
2013-06-25 02:26:00,69.6,64.9,29.92,SW,230,5.0,9.0,85,0.00,,,0.00,meteohub,2013-06-25 06:26:00,
2013-06-25 02:31:00,69.4,64.8,29.92,WSW,248,3.0,9.0,85,0.00,,,0.00,meteohub,2013-06-25 06:31:00,
2013-06-25 02:36:00,69.4,64.8,29.91,WSW,245,4.0,12.0,85,0.00,,,0.00,meteohub,2013-06-25 06:36:00,
2013-06-25 02:42:00,69.4,64.8,29.91,WSW,250,5.0,12.0,85,0.00,,,0.00,meteohub,2013-06-25 06:42:00,
2013-06-25 02:47:00,69.4,64.8,29.91,SW,222,3.0,10.0,85,0.00,,,0.00,meteohub,2013-06-25 06:47:00,
2013-06-25 02:52:00,69.4,65.1,29.92,West,267,4.0,10.0,86,0.00,,,0.00,meteohub,2013-06-25 06:52:00,
2013-06-25 02:57:00,69.3,64.9,29.92,WSW,248,4.0,10.0,86,0.00,,,0.00,meteohub,2013-06-25 06:57:00,
2013-06-25 03:02:00,69.3,64.9,29.92,SW,220,5.0,10.0,86,0.00,,,0.00,meteohub,2013-06-25 07:02:00,
2013-06-25 03:07:00,69.3,64.9,29.92,WSW,240,7.0,10.0,86,0.00,,,0.00,meteohub,2013-06-25 07:07:00,
2013-06-25 03:12:00,69.3,64.9,29.92,West,259,4.0,10.0,86,0.00,,,0.00,meteohub,2013-06-25 07:12:00,
2013-06-25 03:17:00,69.3,64.9,29.91,WSW,240,5.0,11.0,86,0.00,,,0.00,meteohub,2013-06-25 07:17:00,
2013-06-25 03:22:00,69.1,64.8,29.91,WSW,245,6.0,11.0,86,0.00,,,0.00,meteohub,2013-06-25 07:22:00,
2013-06-25 03:27:00,69.1,64.8,29.91,SW,233,8.0,9.0,86,0.00,,,0.00,meteohub,2013-06-25 07:27:00,
2013-06-25 03:33:00,68.9,64.9,29.91,WSW,245,2.0,9.0,87,0.00,,,0.00,meteohub,2013-06-25 07:33:00,
2013-06-25 03:38:00,69.1,65.1,29.91,WSW,253,2.0,9.0,87,0.00,,,0.00,meteohub,2013-06-25 07:38:00,
2013-06-25 03:43:00,68.9,64.6,29.91,SW,225,4.0,9.0,86,0.00,,,0.00,meteohub,2013-06-25 07:43:00,
2013-06-25 03:48:00,69.1,64.8,29.90,WSW,241,3.0,7.0,86,0.00,,,0.00,meteohub,2013-06-25 07:48:00,
2013-06-25 03:53:00,68.9,64.6,29.90,WSW,240,3.0,6.0,86,0.00,,,0.00,meteohub,2013-06-25 07:53:00,
2013-06-25 03:58:00,68.9,64.6,29.91,WSW,248,2.0,6.0,86,0.00,,,0.00,meteohub,2013-06-25 07:58:00,
2013-06-25 04:04:00,68.9,64.6,29.90,WSW,250,3.0,6.0,86,0.00,,,0.00,meteohub,2013-06-25 08:04:00,
2013-06-25 04:09:00,68.9,64.6,29.90,WSW,245,4.0,6.0,86,0.00,,,0.00,meteohub,2013-06-25 08:09:00,
2013-06-25 04:14:00,68.7,64.8,29.90,WSW,242,2.0,6.0,87,0.00,,,0.00,meteohub,2013-06-25 08:14:00,
2013-06-25 04:19:00,68.7,64.8,29.91,SW,232,3.0,6.0,87,0.00,,,0.00,meteohub,2013-06-25 08:19:00,
2013-06-25 04:24:00,68.7,64.8,29.90,SW,217,2.0,6.0,87,0.00,,,0.00,meteohub,2013-06-25 08:24:00,
2013-06-25 04:30:00,68.7,64.8,29.90,West,262,4.0,6.0,87,0.00,,,0.00,meteohub,2013-06-25 08:30:00,
2013-06-25 04:35:00,68.5,64.6,29.90,WSW,248,3.0,11.0,87,0.00,,,0.00,meteohub,2013-06-25 08:35:00,
2013-06-25 04:40:00,68.5,64.6,29.90,West,270,3.0,11.0,87,0.00,,,0.00,meteohub,2013-06-25 08:40:00,
2013-06-25 04:45:00,68.5,64.6,29.90,West,259,4.0,6.0,87,0.00,,,0.00,meteohub,2013-06-25 08:45:00,
2013-06-25 04:50:00,68.5,64.6,29.90,WSW,245,2.0,6.0,87,0.00,,,0.00,meteohub,2013-06-25 08:50:00,
2013-06-25 04:56:00,68.5,64.6,29.90,WSW,250,1.0,6.0,87,0.00,,,0.00,meteohub,2013-06-25 08:56:00,
2013-06-25 05:01:00,68.4,64.4,29.89,WSW,248,1.0,5.0,87,0.00,,,0.00,meteohub,2013-06-25 09:01:00,
2013-06-25 05:06:00,68.4,64.4,29.89,SSW,211,1.0,4.0,87,0.00,,,0.00,meteohub,2013-06-25 09:06:00,
2013-06-25 05:11:00,68.4,64.6,29.90,SW,229,5.0,5.0,88,0.00,,,0.00,meteohub,2013-06-25 09:11:00,
2013-06-25 05:16:00,68.2,64.4,29.91,WSW,250,4.0,4.0,88,0.00,,,0.00,meteohub,2013-06-25 09:16:00,
2013-06-25 05:22:00,68.0,64.4,29.91,WNW,295,3.0,4.0,88,0.00,,,0.00,meteohub,2013-06-25 09:22:00,
2013-06-25 05:27:00,68.2,64.4,29.91,WNW,298,3.0,5.0,88,0.00,,,0.00,meteohub,2013-06-25 09:27:00,
2013-06-25 05:32:00,68.0,64.4,29.92,West,268,2.0,5.0,88,0.00,,,0.00,meteohub,2013-06-25 09:32:00,
2013-06-25 05:37:00,68.2,64.8,29.95,WSW,250,4.0,5.0,89,0.00,,,0.00,meteohub,2013-06-25 09:37:00,
2013-06-25 05:42:00,68.2,64.8,29.96,West,271,5.0,5.0,89,0.00,,,0.00,meteohub,2013-06-25 09:42:00,
2013-06-25 05:47:00,68.2,64.8,29.95,WSW,244,7.0,11.0,89,0.00,,,0.00,meteohub,2013-06-25 09:47:00,
2013-06-25 05:52:00,68.0,64.9,29.96,WSW,243,8.0,11.0,90,0.00,,,0.01,meteohub,2013-06-25 09:52:00,
2013-06-25 05:57:00,67.6,65.3,29.96,WSW,248,8.0,12.0,92,0.01,,,0.01,meteohub,2013-06-25 09:57:00,
2013-06-25 06:03:00,67.5,65.1,29.96,West,280,4.0,12.0,92,0.01,,,0.03,meteohub,2013-06-25 10:03:00,
2013-06-25 06:08:00,67.5,65.3,29.94,SSW,208,1.0,13.0,93,0.04,,,0.03,meteohub,2013-06-25 10:08:00,
2013-06-25 06:13:00,67.3,65.1,29.94,West,263,0.0,13.0,93,0.07,,,0.06,meteohub,2013-06-25 10:13:00,
2013-06-25 06:18:00,67.3,65.1,29.94,SW,236,2.0,12.0,93,0.07,,,0.06,meteohub,2013-06-25 10:18:00,
2013-06-25 06:24:00,67.1,64.9,29.92,SE,142,3.0,12.0,93,0.07,,,0.09,meteohub,2013-06-25 10:24:00,
2013-06-25 06:29:00,66.9,65.1,29.91,ESE,115,4.0,4.0,94,0.10,,,0.09,meteohub,2013-06-25 10:29:00,
2013-06-25 06:34:00,66.9,65.1,29.90,East,95,6.0,6.0,94,0.11,,,0.11,meteohub,2013-06-25 10:34:00,
2013-06-25 06:39:00,66.7,64.9,29.89,East,86,3.0,6.0,94,0.11,,,0.11,meteohub,2013-06-25 10:39:00,
2013-06-25 06:44:00,66.6,65.1,29.91,NW,304,1.0,7.0,95,0.12,,,0.12,meteohub,2013-06-25 10:44:00,
2013-06-25 06:49:00,66.7,65.3,29.90,East,80,3.0,7.0,95,0.12,,,0.12,meteohub,2013-06-25 10:49:00,
2013-06-25 06:55:00,66.6,65.1,29.91,SSE,148,2.0,6.0,95,0.10,,,0.12,meteohub,2013-06-25 10:55:00,
2013-06-25 07:00:00,66.7,65.3,29.93,SW,215,4.0,6.0,95,0.10,,,0.12,meteohub,2013-06-25 11:00:00,
2013-06-25 07:05:00,66.9,65.5,29.94,WNW,295,4.0,6.0,95,0.07,,,0.12,meteohub,2013-06-25 11:05:00,
2013-06-25 07:10:00,66.7,65.3,29.96,WNW,293,3.0,6.0,95,0.07,,,0.12,meteohub,2013-06-25 11:10:00,
2013-06-25 07:15:00,66.7,65.3,29.96,West,264,3.0,7.0,95,0.05,,,0.12,meteohub,2013-06-25 11:15:00,
2013-06-25 07:21:00,66.7,65.5,29.96,SW,217,0.0,7.0,96,0.05,,,0.13,meteohub,2013-06-25 11:21:00,
2013-06-25 07:26:00,66.9,65.7,29.97,SW,233,3.0,7.0,96,0.03,,,0.13,meteohub,2013-06-25 11:26:00,
2013-06-25 07:31:00,66.7,65.5,29.96,South,177,3.0,7.0,96,0.03,,,0.13,meteohub,2013-06-25 11:31:00,
2013-06-25 07:36:00,66.7,65.5,29.97,West,262,7.0,7.0,96,0.01,,,0.13,meteohub,2013-06-25 11:36:00,
2013-06-25 07:41:00,66.9,65.7,29.99,West,262,5.0,7.0,96,0.01,,,0.15,meteohub,2013-06-25 11:41:00,
2013-06-25 07:47:00,66.9,65.7,29.97,WSW,256,1.0,10.0,96,0.04,,,0.15,meteohub,2013-06-25 11:47:00,
2013-06-25 07:52:00,66.9,65.7,29.96,SSW,197,7.0,10.0,96,0.04,,,0.19,meteohub,2013-06-25 11:52:00,
2013-06-25 07:57:00,66.7,65.5,29.96,SSE,155,6.0,10.0,96,0.08,,,0.19,meteohub,2013-06-25 11:57:00,
2013-06-25 08:02:00,66.7,65.5,29.94,SE,135,3.0,10.0,96,0.08,,,0.22,meteohub,2013-06-25 12:02:00,
2013-06-25 08:07:00,66.7,65.5,29.94,SSE,158,4.0,9.0,96,0.10,,,0.22,meteohub,2013-06-25 12:07:00,
2013-06-25 08:12:00,66.9,65.7,29.95,SW,215,3.0,9.0,96,0.10,,,0.24,meteohub,2013-06-25 12:12:00,
2013-06-25 08:17:00,66.9,65.7,29.94,SW,233,1.0,6.0,96,0.13,,,0.24,meteohub,2013-06-25 12:17:00,
2013-06-25 08:22:00,66.9,65.7,29.95,South,190,4.0,6.0,96,0.13,,,0.26,meteohub,2013-06-25 12:22:00,
2013-06-25 08:27:00,66.9,65.7,29.94,SSE,162,3.0,6.0,96,0.13,,,0.26,meteohub,2013-06-25 12:27:00,
2013-06-25 08:32:00,66.9,65.7,29.94,South,190,4.0,6.0,96,0.16,,,0.30,meteohub,2013-06-25 12:32:00,
2013-06-25 08:38:00,66.9,65.7,29.94,SSE,150,6.0,10.0,96,0.16,,,0.30,meteohub,2013-06-25 12:38:00,
2013-06-25 08:43:00,66.9,65.7,29.93,South,181,10.0,10.0,96,0.16,,,0.33,meteohub,2013-06-25 12:43:00,
2013-06-25 08:48:00,66.9,65.7,29.91,SSW,198,11.0,12.0,96,0.17,,,0.33,meteohub,2013-06-25 12:48:00,
2013-06-25 08:53:00,66.9,65.7,29.88,SE,127,9.0,13.0,96,0.16,,,0.35,meteohub,2013-06-25 12:53:00,
2013-06-25 08:58:00,67.1,65.8,29.87,SE,142,9.0,13.0,96,0.16,,,0.35,meteohub,2013-06-25 12:58:00,
2013-06-25 09:04:00,67.3,66.0,29.87,SE,134,10.0,13.0,96,0.16,,,0.36,meteohub,2013-06-25 13:04:00,
2013-06-25 09:09:00,67.3,66.0,29.87,SSE,160,9.0,13.0,96,0.14,,,0.36,meteohub,2013-06-25 13:09:00,
2013-06-25 09:14:00,67.3,66.0,29.87,SSE,164,10.0,15.0,96,0.11,,,0.36,meteohub,2013-06-25 13:14:00,
2013-06-25 09:19:00,67.3,66.0,29.88,SSE,148,13.0,15.0,96,0.11,,,0.36,meteohub,2013-06-25 13:19:00,
2013-06-25 09:24:00,67.3,66.0,29.88,South,191,8.0,17.0,96,0.08,,,0.36,meteohub,2013-06-25 13:24:00,
2013-06-25 09:30:00,67.3,65.8,29.89,SSW,203,5.0,17.0,95,0.08,,,0.36,meteohub,2013-06-25 13:30:00,
2013-06-25 09:35:00,67.5,66.0,29.89,SW,216,14.0,17.0,95,0.06,,,0.36,meteohub,2013-06-25 13:35:00,
2013-06-25 09:40:00,67.6,66.2,29.88,South,173,8.0,17.0,95,0.06,,,0.36,meteohub,2013-06-25 13:40:00,
2013-06-25 09:45:00,67.8,66.4,29.88,SSE,166,12.0,17.0,95,0.02,,,0.36,meteohub,2013-06-25 13:45:00,
2013-06-25 09:50:00,67.8,66.4,29.88,South,191,6.0,17.0,95,0.02,,,0.36,meteohub,2013-06-25 13:50:00,
2013-06-25 09:56:00,68.2,66.4,29.89,South,172,5.0,14.0,94,0.00,,,0.36,meteohub,2013-06-25 13:56:00,
2013-06-25 10:01:00,68.4,66.9,29.89,South,190,7.0,14.0,95,0.00,,,0.36,meteohub,2013-06-25 14:01:00,
2013-06-25 10:06:00,68.5,66.7,29.89,South,191,6.0,13.0,94,0.00,,,0.36,meteohub,2013-06-25 14:06:00,
2013-06-25 10:11:00,68.5,66.7,29.90,SSW,212,7.0,13.0,94,0.00,,,0.36,meteohub,2013-06-25 14:11:00,
2013-06-25 10:16:00,68.7,66.6,29.90,South,191,6.0,13.0,93,0.00,,,0.36,meteohub,2013-06-25 14:16:00,
2013-06-25 10:22:00,69.1,66.9,29.91,SSW,209,11.0,13.0,93,0.00,,,0.36,meteohub,2013-06-25 14:22:00,
2013-06-25 10:27:00,69.3,67.1,29.91,SW,217,8.0,14.0,93,0.00,,,0.36,meteohub,2013-06-25 14:27:00,
2013-06-25 10:32:00,69.6,67.3,29.90,SE,142,2.0,14.0,92,0.00,,,0.36,meteohub,2013-06-25 14:32:00,
2013-06-25 10:37:00,70.0,67.5,29.90,SW,228,6.0,15.0,92,0.00,,,0.36,meteohub,2013-06-25 14:37:00,
2013-06-25 10:42:00,70.3,67.6,29.90,SW,214,12.0,15.0,91,0.00,,,0.36,meteohub,2013-06-25 14:42:00,
2013-06-25 10:47:00,70.5,67.8,29.90,SW,226,9.0,15.0,91,0.00,,,0.36,meteohub,2013-06-25 14:47:00,
2013-06-25 10:52:00,71.1,67.6,29.91,SSW,208,13.0,15.0,89,0.00,,,0.36,meteohub,2013-06-25 14:52:00,
2013-06-25 10:57:00,70.9,67.5,29.91,South,184,5.0,15.0,89,0.00,,,0.36,meteohub,2013-06-25 14:57:00,
2013-06-25 11:02:00,70.9,67.5,29.91,SW,221,14.0,15.0,89,0.00,,,0.36,meteohub,2013-06-25 15:02:00,
2013-06-25 11:08:00,71.1,67.6,29.91,SSW,208,6.0,17.0,89,0.00,,,0.36,meteohub,2013-06-25 15:08:00,
2013-06-25 11:13:00,70.9,67.5,29.90,SW,223,10.0,17.0,89,0.00,,,0.36,meteohub,2013-06-25 15:13:00,
2013-06-25 11:18:00,71.1,68.0,29.91,SSW,212,6.0,17.0,90,0.00,,,0.36,meteohub,2013-06-25 15:18:00,
2013-06-25 11:23:00,71.1,67.6,29.91,SW,218,8.0,17.0,89,0.00,,,0.36,meteohub,2013-06-25 15:23:00,
2013-06-25 11:28:00,71.2,68.2,29.91,West,277,4.0,14.0,90,0.00,,,0.36,meteohub,2013-06-25 15:28:00,
2013-06-25 11:34:00,71.2,68.2,29.92,SSW,208,5.0,14.0,90,0.00,,,0.36,meteohub,2013-06-25 15:34:00,
2013-06-25 11:39:00,71.2,68.2,29.92,SW,222,8.0,14.0,90,0.00,,,0.36,meteohub,2013-06-25 15:39:00,
2013-06-25 11:44:00,71.2,68.2,29.92,SSW,194,7.0,11.0,90,0.00,,,0.36,meteohub,2013-06-25 15:44:00,
2013-06-25 11:49:00,71.4,68.4,29.92,SSW,205,8.0,11.0,90,0.00,,,0.36,meteohub,2013-06-25 15:49:00,
2013-06-25 11:54:00,71.8,68.4,29.93,SW,232,5.0,12.0,89,0.00,,,0.36,meteohub,2013-06-25 15:54:00,
2013-06-25 12:00:00,72.0,68.9,29.93,SW,229,7.0,12.0,90,0.00,,,0.36,meteohub,2013-06-25 16:00:00,
2013-06-25 12:05:00,72.0,68.5,29.94,WSW,253,6.0,12.0,89,0.00,,,0.36,meteohub,2013-06-25 16:05:00,
2013-06-25 12:10:00,72.1,68.7,29.95,West,278,6.0,11.0,89,0.00,,,0.36,meteohub,2013-06-25 16:10:00,
2013-06-25 12:15:00,72.1,69.1,29.98,WNW,301,10.0,11.0,90,0.00,,,0.36,meteohub,2013-06-25 16:15:00,
2013-06-25 12:21:00,71.8,68.4,29.96,WNW,303,11.0,11.0,89,0.00,,,0.36,meteohub,2013-06-25 16:21:00,
2013-06-25 12:26:00,71.2,67.8,29.96,West,279,2.0,11.0,89,0.00,,,0.36,meteohub,2013-06-25 16:26:00,
2013-06-25 12:31:00,71.1,67.6,29.95,WNW,287,3.0,19.0,89,0.00,,,0.36,meteohub,2013-06-25 16:31:00,
2013-06-25 12:37:00,71.4,68.0,29.93,East,97,2.0,13.0,89,0.00,,,0.36,meteohub,2013-06-25 16:37:00,
2013-06-25 12:42:00,71.8,67.6,29.94,WSW,242,0.0,13.0,87,0.00,,,0.36,meteohub,2013-06-25 16:42:00,
2013-06-25 12:47:00,72.1,67.6,29.93,WSW,256,1.0,4.0,86,0.00,,,0.36,meteohub,2013-06-25 16:47:00,
2013-06-25 12:52:00,72.3,68.2,29.93,SW,226,3.0,4.0,87,0.00,,,0.36,meteohub,2013-06-25 16:52:00,
2013-06-25 12:57:00,72.7,68.2,29.92,SSW,200,2.0,4.0,86,0.00,,,0.36,meteohub,2013-06-25 16:57:00,
2013-06-25 13:02:00,73.0,68.9,29.91,SSE,163,3.0,4.0,87,0.00,,,0.36,meteohub,2013-06-25 17:02:00,
2013-06-25 13:07:00,73.6,69.4,29.91,SSW,211,5.0,5.0,87,0.00,,,0.36,meteohub,2013-06-25 17:07:00,
2013-06-25 13:13:00,73.6,69.1,29.90,SSW,194,4.0,4.0,86,0.00,,,0.36,meteohub,2013-06-25 17:13:00,
2013-06-25 13:18:00,73.9,69.4,29.88,South,169,4.0,6.0,86,0.00,,,0.36,meteohub,2013-06-25 17:18:00,
2013-06-25 13:23:00,74.3,69.8,29.88,SSW,200,3.0,6.0,86,0.00,,,0.36,meteohub,2013-06-25 17:23:00,
2013-06-25 13:28:00,74.8,70.3,29.87,SSE,167,10.0,10.0,86,0.00,,,0.36,meteohub,2013-06-25 17:28:00,
2013-06-25 13:33:00,74.8,70.3,29.88,South,176,1.0,6.0,86,0.00,,,0.36,meteohub,2013-06-25 17:33:00,
2013-06-25 13:39:00,75.4,70.5,29.87,South,172,5.0,10.0,85,0.00,,,0.36,meteohub,2013-06-25 17:39:00,
2013-06-25 13:44:00,75.6,70.3,29.86,SE,143,3.0,10.0,84,0.00,,,0.36,meteohub,2013-06-25 17:44:00,
2013-06-25 13:49:00,75.7,70.5,29.86,SSE,167,4.0,9.0,84,0.00,,,0.36,meteohub,2013-06-25 17:49:00,
2013-06-25 13:54:00,75.9,70.3,29.85,SSE,163,4.0,8.0,83,0.00,,,0.36,meteohub,2013-06-25 17:54:00,
2013-06-25 13:59:00,76.5,70.9,29.85,SSE,158,6.0,8.0,83,0.00,,,0.36,meteohub,2013-06-25 17:59:00,
2013-06-25 14:05:00,76.6,71.1,29.85,SSE,152,7.0,9.0,83,0.00,,,0.36,meteohub,2013-06-25 18:05:00,
2013-06-25 14:10:00,76.8,70.5,29.85,SSE,152,3.0,9.0,81,0.00,,,0.36,meteohub,2013-06-25 18:10:00,
2013-06-25 14:15:00,77.2,70.9,29.85,SSE,155,5.0,9.0,81,0.00,,,0.36,meteohub,2013-06-25 18:15:00,
2013-06-25 14:20:00,77.2,71.2,29.85,SSW,210,6.0,9.0,82,0.00,,,0.36,meteohub,2013-06-25 18:20:00,
2013-06-25 14:26:00,77.4,71.4,29.85,SSE,155,3.0,10.0,82,0.00,,,0.36,meteohub,2013-06-25 18:26:00,
2013-06-25 14:31:00,77.9,71.6,29.85,SSW,201,5.0,10.0,81,0.00,,,0.36,meteohub,2013-06-25 18:31:00,
2013-06-25 14:36:00,78.4,71.8,29.85,SSW,208,6.0,8.0,80,0.00,,,0.36,meteohub,2013-06-25 18:36:00,
2013-06-25 14:41:00,78.8,72.1,29.85,SW,219,7.0,8.0,80,0.00,,,0.36,meteohub,2013-06-25 18:41:00,
2013-06-25 14:46:00,79.2,71.8,29.85,SSW,212,7.0,13.0,78,0.00,,,0.36,meteohub,2013-06-25 18:46:00,
2013-06-25 14:52:00,79.2,71.2,29.84,SSW,200,11.0,13.0,77,0.00,,,0.36,meteohub,2013-06-25 18:52:00,
2013-06-25 14:57:00,79.5,72.1,29.85,West,262,3.0,13.0,78,0.00,,,0.36,meteohub,2013-06-25 18:57:00,
2013-06-25 15:02:00,79.9,71.6,29.86,West,259,5.0,13.0,76,0.00,,,0.36,meteohub,2013-06-25 19:02:00,
2013-06-25 15:07:00,79.9,71.2,29.86,WSW,248,10.0,14.0,75,0.00,,,0.36,meteohub,2013-06-25 19:07:00,
2013-06-25 15:12:00,79.9,71.2,29.86,WSW,249,6.0,14.0,75,0.00,,,0.36,meteohub,2013-06-25 19:12:00,
2013-06-25 15:17:00,80.1,71.4,29.87,WSW,253,7.0,14.0,75,0.00,,,0.36,meteohub,2013-06-25 19:17:00,
2013-06-25 15:22:00,80.2,72.0,29.87,West,264,9.0,14.0,76,0.00,,,0.36,meteohub,2013-06-25 19:22:00,
2013-06-25 15:27:00,80.1,71.1,29.88,West,269,9.0,13.0,74,0.00,,,0.36,meteohub,2013-06-25 19:27:00,
2013-06-25 15:32:00,79.9,71.6,29.88,West,274,8.0,13.0,76,0.00,,,0.36,meteohub,2013-06-25 19:32:00,
2013-06-25 15:38:00,79.7,71.4,29.88,WSW,239,9.0,15.0,76,0.00,,,0.36,meteohub,2013-06-25 19:38:00,
2013-06-25 15:43:00,79.5,71.6,29.88,WNW,290,9.0,15.0,77,0.00,,,0.36,meteohub,2013-06-25 19:43:00,
2013-06-25 15:48:00,79.7,72.1,29.87,WNW,295,8.0,15.0,78,0.00,,,0.36,meteohub,2013-06-25 19:48:00,
2013-06-25 15:54:00,80.1,71.8,29.87,WNW,293,6.0,17.0,76,0.00,,,0.36,meteohub,2013-06-25 19:54:00,
2013-06-25 15:59:00,78.6,72.7,29.88,WNW,293,7.0,17.0,82,0.00,,,0.36,meteohub,2013-06-25 19:59:00,
2013-06-25 16:04:00,77.5,72.0,29.88,North,353,4.0,17.0,83,0.00,,,0.36,meteohub,2013-06-25 20:04:00,
2013-06-25 16:09:00,77.4,72.1,29.87,NNW,338,4.0,17.0,84,0.00,,,0.36,meteohub,2013-06-25 20:09:00,
2013-06-25 16:14:00,77.7,72.5,29.87,NNW,332,3.0,16.0,84,0.00,,,0.36,meteohub,2013-06-25 20:14:00,
2013-06-25 16:20:00,78.6,73.0,29.87,NW,317,7.0,16.0,83,0.00,,,0.36,meteohub,2013-06-25 20:20:00,
2013-06-25 16:25:00,78.6,73.0,29.87,WNW,298,4.0,8.0,83,0.00,,,0.36,meteohub,2013-06-25 20:25:00,
2013-06-25 16:30:00,79.0,72.7,29.86,NNW,331,4.0,8.0,81,0.00,,,0.36,meteohub,2013-06-25 20:30:00,
2013-06-25 16:35:00,79.2,72.5,29.86,NW,321,6.0,7.0,80,0.00,,,0.36,meteohub,2013-06-25 20:35:00,
2013-06-25 16:40:00,79.5,72.5,29.86,NW,326,5.0,7.0,79,0.00,,,0.36,meteohub,2013-06-25 20:40:00,
2013-06-25 16:46:00,80.1,72.5,29.86,WNW,286,4.0,6.0,78,0.00,,,0.36,meteohub,2013-06-25 20:46:00,
2013-06-25 16:51:00,80.8,72.1,29.85,West,274,4.0,6.0,75,0.00,,,0.36,meteohub,2013-06-25 20:51:00,
2013-06-25 16:56:00,81.1,72.1,29.85,WNW,293,4.0,9.0,74,0.00,,,0.36,meteohub,2013-06-25 20:56:00,
2013-06-25 17:01:00,81.3,70.5,29.85,WNW,287,4.0,9.0,70,0.00,,,0.36,meteohub,2013-06-25 21:01:00,
2013-06-25 17:06:00,81.0,70.2,29.85,West,267,4.0,11.0,70,0.00,,,0.36,meteohub,2013-06-25 21:06:00,
2013-06-25 17:12:00,80.8,70.9,29.85,WNW,287,4.0,11.0,72,0.00,,,0.36,meteohub,2013-06-25 21:12:00,
2013-06-25 17:17:00,80.8,71.2,29.85,NW,316,4.0,11.0,73,0.00,,,0.36,meteohub,2013-06-25 21:17:00,
2013-06-25 17:22:00,80.8,70.5,29.85,WNW,293,3.0,11.0,71,0.00,,,0.36,meteohub,2013-06-25 21:22:00,
2013-06-25 17:27:00,80.8,70.2,29.85,NW,314,4.0,8.0,70,0.00,,,0.36,meteohub,2013-06-25 21:27:00,
2013-06-25 17:32:00,80.8,70.9,29.85,WNW,284,3.0,8.0,72,0.00,,,0.36,meteohub,2013-06-25 21:32:00,
2013-06-25 17:37:00,80.4,70.9,29.85,WNW,284,3.0,9.0,73,0.00,,,0.36,meteohub,2013-06-25 21:37:00,
2013-06-25 17:42:00,80.2,71.2,29.85,WNW,293,2.0,9.0,74,0.00,,,0.36,meteohub,2013-06-25 21:42:00,
2013-06-25 17:47:00,80.1,71.1,29.85,WNW,284,3.0,8.0,74,0.00,,,0.36,meteohub,2013-06-25 21:47:00,
2013-06-25 17:53:00,79.5,70.2,29.84,NW,306,5.0,8.0,73,0.00,,,0.36,meteohub,2013-06-25 21:53:00,
2013-06-25 17:58:00,79.3,70.3,29.84,NNW,329,4.0,8.0,74,0.00,,,0.36,meteohub,2013-06-25 21:58:00,
2013-06-25 18:03:00,79.3,70.7,29.84,WNW,290,3.0,8.0,75,0.00,,,0.36,meteohub,2013-06-25 22:03:00,
2013-06-25 18:08:00,79.5,70.9,29.84,NNW,329,5.0,8.0,75,0.00,,,0.36,meteohub,2013-06-25 22:08:00,
2013-06-25 18:13:00,79.3,71.1,29.84,WNW,297,4.0,8.0,76,0.00,,,0.36,meteohub,2013-06-25 22:13:00,
2013-06-25 18:19:00,79.3,71.1,29.84,NW,326,2.0,9.0,76,0.00,,,0.36,meteohub,2013-06-25 22:19:00,
2013-06-25 18:24:00,79.0,70.7,29.83,NW,313,4.0,9.0,76,0.00,,,0.36,meteohub,2013-06-25 22:24:00,
2013-06-25 18:29:00,78.6,69.6,29.83,NNW,332,6.0,7.0,74,0.00,,,0.36,meteohub,2013-06-25 22:29:00,
2013-06-25 18:34:00,78.4,69.8,29.84,NNW,329,2.0,7.0,75,0.00,,,0.36,meteohub,2013-06-25 22:34:00,
2013-06-25 18:39:00,78.3,70.5,29.84,North,349,1.0,7.0,77,0.00,,,0.36,meteohub,2013-06-25 22:39:00,
2013-06-25 18:45:00,78.3,70.5,29.84,NE,47,4.0,7.0,77,0.00,,,0.36,meteohub,2013-06-25 22:45:00,
2013-06-25 18:50:00,78.4,70.2,29.84,North,351,3.0,7.0,76,0.00,,,0.36,meteohub,2013-06-25 22:50:00,
2013-06-25 18:55:00,78.8,71.1,29.83,NNW,338,1.0,6.0,77,0.00,,,0.36,meteohub,2013-06-25 22:55:00,
2013-06-25 19:00:00,79.2,70.9,29.83,NNE,33,2.0,6.0,76,0.00,,,0.36,meteohub,2013-06-25 23:00:00,
2013-06-25 19:05:00,79.2,70.5,29.83,NNW,331,3.0,5.0,75,0.00,,,0.36,meteohub,2013-06-25 23:05:00,
2013-06-25 19:11:00,79.0,70.7,29.83,NNW,329,1.0,5.0,76,0.00,,,0.36,meteohub,2013-06-25 23:11:00,
2013-06-25 19:16:00,79.0,71.1,29.83,NNE,29,2.0,5.0,77,0.00,,,0.36,meteohub,2013-06-25 23:16:00,
2013-06-25 19:21:00,78.6,70.9,29.83,North,10,3.0,5.0,77,0.00,,,0.36,meteohub,2013-06-25 23:21:00,
2013-06-25 19:26:00,78.3,70.9,29.83,NNE,14,3.0,5.0,78,0.00,,,0.36,meteohub,2013-06-25 23:26:00,
2013-06-25 19:31:00,78.3,70.9,29.83,NE,40,1.0,5.0,78,0.00,,,0.36,meteohub,2013-06-25 23:31:00,
2013-06-25 19:37:00,78.1,71.1,29.83,North,351,0.0,5.0,79,0.00,,,0.36,meteohub,2013-06-25 23:37:00,
2013-06-25 19:42:00,78.1,71.1,29.83,NNW,345,1.0,5.0,79,0.00,,,0.36,meteohub,2013-06-25 23:42:00,
2013-06-25 19:47:00,77.7,71.1,29.83,NNW,332,2.0,2.0,80,0.00,,,0.36,meteohub,2013-06-25 23:47:00,
2013-06-25 19:52:00,77.5,71.2,29.82,NE,36,0.0,2.0,81,0.00,,,0.36,meteohub,2013-06-25 23:52:00,
2013-06-25 19:57:00,77.2,71.2,29.81,NE,40,1.0,2.0,82,0.00,,,0.36,meteohub,2013-06-25 23:57:00,
2013-06-25 20:03:00,77.0,71.1,29.81,North,354,2.0,2.0,82,0.00,,,0.36,meteohub,2013-06-26 00:03:00,
2013-06-25 20:08:00,76.8,70.9,29.82,NNE,15,0.0,3.0,82,0.00,,,0.36,meteohub,2013-06-26 00:08:00,
2013-06-25 20:13:00,76.8,70.9,29.81,North,349,2.0,3.0,82,0.00,,,0.36,meteohub,2013-06-26 00:13:00,
2013-06-25 20:18:00,76.6,70.3,29.81,North,5,3.0,3.0,81,0.00,,,0.36,meteohub,2013-06-26 00:18:00,
2013-06-25 20:23:00,76.6,70.7,29.81,NNE,20,0.0,3.0,82,0.00,,,0.36,meteohub,2013-06-26 00:23:00,
2013-06-25 20:29:00,76.5,70.9,29.81,NNE,18,1.0,3.0,83,0.00,,,0.36,meteohub,2013-06-26 00:29:00,
2013-06-25 20:34:00,76.3,70.7,29.81,North,1,1.0,3.0,83,0.00,,,0.36,meteohub,2013-06-26 00:34:00,
2013-06-25 20:39:00,76.1,70.5,29.82,NNE,12,0.0,3.0,83,0.00,,,0.36,meteohub,2013-06-26 00:39:00,
2013-06-25 20:44:00,76.1,70.5,29.82,NNE,12,1.0,3.0,83,0.00,,,0.36,meteohub,2013-06-26 00:44:00,
2013-06-25 20:49:00,75.9,70.3,29.83,NNE,33,1.0,3.0,83,0.00,,,0.36,meteohub,2013-06-26 00:49:00,
2013-06-25 20:55:00,75.9,70.3,29.83,NE,46,0.0,3.0,83,0.00,,,0.36,meteohub,2013-06-26 00:55:00,
2013-06-25 21:00:00,75.9,70.3,29.83,ENE,68,1.0,3.0,83,0.00,,,0.36,meteohub,2013-06-26 01:00:00,
2013-06-25 21:05:00,75.7,70.2,29.83,ENE,71,1.0,2.0,83,0.00,,,0.36,meteohub,2013-06-26 01:05:00,
2013-06-25 21:10:00,75.7,70.5,29.83,SE,124,2.0,2.0,84,0.00,,,0.36,meteohub,2013-06-26 01:10:00,
2013-06-25 21:16:00,75.7,70.5,29.83,East,91,0.0,3.0,84,0.00,,,0.36,meteohub,2013-06-26 01:16:00,
2013-06-25 21:21:00,75.7,70.5,29.83,ENE,63,3.0,3.0,84,0.00,,,0.36,meteohub,2013-06-26 01:21:00,
2013-06-25 21:26:00,75.6,70.7,29.83,NE,51,2.0,4.0,85,0.00,,,0.36,meteohub,2013-06-26 01:26:00,
2013-06-25 21:31:00,75.4,70.5,29.83,ENE,68,0.0,4.0,85,0.00,,,0.36,meteohub,2013-06-26 01:31:00,
2013-06-25 21:36:00,75.2,70.3,29.83,East,79,2.0,4.0,85,0.00,,,0.36,meteohub,2013-06-26 01:36:00,
2013-06-25 21:41:00,75.0,70.5,29.83,East,84,1.0,4.0,86,0.00,,,0.36,meteohub,2013-06-26 01:41:00,
2013-06-25 21:47:00,75.0,70.5,29.83,East,84,0.0,3.0,86,0.00,,,0.36,meteohub,2013-06-26 01:47:00,
2013-06-25 21:52:00,74.8,70.3,29.82,East,85,1.0,3.0,86,0.00,,,0.36,meteohub,2013-06-26 01:52:00,
2013-06-25 21:57:00,74.7,70.5,29.82,East,79,0.0,2.0,87,0.00,,,0.36,meteohub,2013-06-26 01:57:00,
2013-06-25 22:02:00,74.3,70.2,29.83,ESE,122,2.0,2.0,87,0.00,,,0.36,meteohub,2013-06-26 02:02:00,
2013-06-25 22:07:00,74.1,70.3,29.83,SE,135,4.0,4.0,88,0.00,,,0.36,meteohub,2013-06-26 02:07:00,
2013-06-25 22:12:00,73.9,70.5,29.83,SE,124,4.0,4.0,89,0.00,,,0.36,meteohub,2013-06-26 02:12:00,
2013-06-25 22:17:00,73.9,70.2,29.83,ESE,106,1.0,5.0,88,0.00,,,0.36,meteohub,2013-06-26 02:17:00,
2013-06-25 22:22:00,73.8,70.3,29.83,ESE,116,0.0,5.0,89,0.00,,,0.36,meteohub,2013-06-26 02:22:00,
2013-06-25 22:27:00,73.6,70.2,29.83,ESE,107,1.0,5.0,89,0.00,,,0.36,meteohub,2013-06-26 02:27:00,
2013-06-25 22:32:00,73.0,70.0,29.83,SE,131,4.0,5.0,90,0.00,,,0.36,meteohub,2013-06-26 02:32:00,
2013-06-25 22:37:00,73.0,70.0,29.84,SE,136,4.0,4.0,90,0.00,,,0.36,meteohub,2013-06-26 02:37:00,
2013-06-25 22:42:00,73.2,70.2,29.83,ESE,102,3.0,4.0,90,0.00,,,0.36,meteohub,2013-06-26 02:42:00,
2013-06-25 22:48:00,73.0,70.0,29.84,SE,129,4.0,6.0,90,0.00,,,0.36,meteohub,2013-06-26 02:48:00,
2013-06-25 22:53:00,73.2,70.2,29.83,SSE,147,6.0,6.0,90,0.00,,,0.36,meteohub,2013-06-26 02:53:00,
2013-06-25 22:58:00,73.4,70.0,29.84,ESE,122,6.0,9.0,89,0.00,,,0.36,meteohub,2013-06-26 02:58:00,
2013-06-25 23:03:00,73.4,70.0,29.84,ESE,121,6.0,9.0,89,0.00,,,0.36,meteohub,2013-06-26 03:03:00,
2013-06-25 23:08:00,73.6,70.2,29.84,ESE,107,4.0,9.0,89,0.00,,,0.36,meteohub,2013-06-26 03:08:00,
2013-06-25 23:14:00,73.6,70.2,29.83,SE,128,7.0,9.0,89,0.00,,,0.36,meteohub,2013-06-26 03:14:00,
2013-06-25 23:19:00,73.6,70.2,29.83,East,97,4.0,9.0,89,0.00,,,0.36,meteohub,2013-06-26 03:19:00,
2013-06-25 23:24:00,73.4,70.3,29.83,ESE,113,6.0,8.0,90,0.00,,,0.36,meteohub,2013-06-26 03:24:00,
2013-06-25 23:29:00,73.4,70.3,29.83,East,97,3.0,8.0,90,0.00,,,0.36,meteohub,2013-06-26 03:29:00,
2013-06-25 23:34:00,73.4,70.3,29.83,East,84,2.0,7.0,90,0.00,,,0.36,meteohub,2013-06-26 03:34:00,
2013-06-25 23:40:00,73.4,70.3,29.83,ESE,115,4.0,7.0,90,0.00,,,0.36,meteohub,2013-06-26 03:40:00,
2013-06-25 23:45:00,73.6,70.5,29.83,SSE,152,7.0,8.0,90,0.00,,,0.36,meteohub,2013-06-26 03:45:00,
2013-06-25 23:50:00,73.8,70.7,29.83,SSE,164,5.0,8.0,90,0.00,,,0.36,meteohub,2013-06-26 03:50:00,
2013-06-25 23:55:00,73.8,70.3,29.84,SSE,152,2.0,10.0,89,0.00,,,0.36,meteohub,2013-06-26 03:55:00,